Regional Weather Roundup
Issued by NWS

Home | Current Version | Previous Version | Graphics & Text | Print | Product List | Glossary On
Versions: 1 2 3 4 5 6 7 8 9 10 11 12 13 14 15 16 17 18 19 20 21 22 23 24 25 26 27 28 29 30 31 32 33 34 35 36 37 38 39 40 41 42 43 44 45 46 47 48 49 50
000
ASUS45 KBOU 270607
RWRCO

WEATHER ROUNDUP FOR COLORADO
NATIONAL WEATHER SERVICE DENVER/BOULDER CO
1200 AM MDT THU JUL 27 2017

NOTE: "FAIR" INDICATES FEW OR NO CLOUDS BELOW 12000 FEET WITH NO
SIGNIFICANT WEATHER AND/OR OBSTRUCTIONS TO VISIBILITY.

COZ001>005-013-030-031-270700-
...NORTHWEST COLORADO...

CITY           SKY/WX    TMP DP  RH WIND       PRES   REMARKS
CRAIG          FAIR      60  56  86 CALM      30.30R
HAYDEN         FAIR      61  54  77 E6        30.32S
MEEKER         FAIR      62  57  83 E5        30.31R
RABBIT EARS PA MOCLDY    54  46  76 CALM      30.62S
STEAMBOAT SPGS FAIR      60  57  91 SE6       30.34S
WALDEN         FAIR      54  52  94 CALM      30.44F
$$

COZ006>008-011-270700-
...WEST CENTRAL VALLEYS...

CITY           SKY/WX    TMP DP  RH WIND       PRES   REMARKS
GRAND JUNCTION FAIR      76  56  49 N6        30.16R
MONTROSE       FAIR      70  57  63 SE9       30.27R
EAGLE          FAIR      65  56  72 E5        30.35R
RIFLE          MOCLDY    70  61  73 E6        30.22R
DELTA          FAIR      74  60  61 E5        30.20R
NUCLA          FAIR      70  54  56 E9        30.29R
$$

COZ017>023-064>068-270700-
...SOUTHWEST COLORADO...

CITY           SKY/WX    TMP DP  RH WIND       PRES   REMARKS
DURANGO        FAIR      65  54  67 CALM      30.28S
CORTEZ         FAIR      65  58  78 N5        30.23S
PAGOSA SPRINGS FAIR      64  49  56 CALM      30.38S
TELLURIDE      FAIR      57  55  92 SE6       30.51F
WOLF CREEK PAS NOT AVBL
$$

COZ009-010-012-014-032>034-037-058>063-270700-
...CENTRAL COLORADO...

CITY           SKY/WX    TMP DP  RH WIND       PRES   REMARKS
ASPEN          FAIR      61  54  77 SW5       30.39S
BUENA VISTA    NOT AVBL
COPPER MTN     CLOUDY    54  46  76 CALM      30.73S
BERTHOUD PASS  HAZE      43  30  61 SE7       30.76F VSB<1/4
COTTONWOOD PAS CLOUDY    59  52  77 SE3       30.59S
GUNNISON       FAIR      61  52  72 N5        30.40R
KREMMLING      CLOUDY    61  59  94 CALM      30.41S
LEADVILLE      CLOUDY    54  49  83 S10       30.53F
MONARCH PASS   CLOUDY    50  48  93 E14       30.82S
SALIDA         CLOUDY    65  55  69 NE9G20    30.50R
SUNLIGHT       FAIR      52  46  82 NW6       30.66S
WILKERSON PASS CLOUDY    46  46 100 NE7       30.72S
$$

COZ069>075-270700-
...SAN LUIS VALLEY/SANGRE DE CRISTO MOUNTAINS...

CITY           SKY/WX    TMP DP  RH WIND       PRES   REMARKS
ALAMOSA        FAIR      61  56  83 SE6       30.36F
DEL NORTE      FAIR      58  48  69 W6        30.43R
LA VETA PASS   NOT AVBL
SAGUACHE         N/A    N/A N/A N/A MISG        N/A
$$

COZ035-036-038>040-270700-
...NORTHERN COLORADO FRONT RANGE...

CITY           SKY/WX    TMP DP  RH WIND       PRES   REMARKS
DENVER INTL AP CLOUDY    65  62  90 W7        30.31S
DMNS CITY PARK   N/A     64  63  97 E8        30.32S
AURORA         NOT AVBL
FRONT RANGE AP CLOUDY    64  63  94 NW8G18    30.33R
ERIE MUNI ARPT CLOUDY    65  63  91 CALM      30.30S
BOULDER MUN AP LGT RAIN  64  64 100 CALM      30.30F
CENTENNIAL     LGT RAIN  62  62 100 W6        30.34S
BROOMFIELD     CLOUDY    64  63  94 CALM      30.34S
FORT COLLINS   CLOUDY    66  63  90 SW5       30.28S
LONGMONT       CLOUDY    68  64  86 CALM      30.31S
$$

COZ041-046-047-076>085-087-088-270700-
...PIKES PEAK/PALMER DIVIDE AND SOUTHERN FOOTHILLS...

CITY           SKY/WX    TMP DP  RH WIND       PRES   REMARKS
COLO. SPRINGS  LGT RAIN  64  62  93 N5        30.36F
A. F. ACADEMY  LGT RAIN  61  61  99 CALM      30.38F
SCHRIEVER AFB  RAIN      61  59  93 NE9       30.36F
CHEYENNE MTN   LGT RAIN  62  57  83 NW6       30.34F
ELLICOTT       TSTM     N/A N/A N/A E8        30.34F
FALCON         RAIN      60  58  94 N3        30.41F
FORT CARSON    LGT RAIN  63  61  94 N6        30.33F
LIMON          LGT RAIN  66  65  96 S5        30.31R
MONUMENT HILL  TSTM      57  55  94 N3        30.45R
CANON CITY     CLOUDY    70  64  83 SE5       30.31S
WALSENBURG     MOCLDY    66  63  88 N5        30.34S
TRINIDAD       LGT RAIN  66  62  87 W8        30.30F
$$

COZ042>045-048>051-090-091-270700-
...NORTHEAST COLORADO...

CITY           SKY/WX    TMP DP  RH WIND       PRES   REMARKS
GREELEY ARPT   FAIR      67  64  90 SW6       30.27S
AKRON          FAIR      68  63  84 E6        30.26R
BURLINGTON     FAIR      69  66  90 N6        30.20F
WRAY           NOT AVBL
YUMA           FAIR      64  59  82 CALM      30.22S
STERLING       FAIR      68  64  88 CALM      30.23R
HOLYOKE        FAIR      68  63  83 CALM      30.21S
FORT MORGAN    FAIR      69  62  79 CALM      30.26S
$$

COZ086-089-092>099-270700-
...SOUTHEAST COLORADO...

CITY           SKY/WX    TMP DP  RH WIND       PRES   REMARKS
PUEBLO         CLOUDY    69  62  78 NE18      30.25F
LA JUNTA       MOCLDY    72  68  87 NE5       30.19F
LAMAR          TSTM      72  68  87 S5        30.16R
SPRINGFIELD      N/A     72  65  78 SW13G18   30.21R
$$



USA.gov is the U.S. government's official web portal to all federal, state and local government web resources and services.